This is the latest recevied weather packets stored in our database for station/object KB3KAV. If no packets are shown the sender has not sent any weather packets the latest 10 day(s).
| Time | Temp. | Humidity | Pressure | Rain* | Wind** | Luminosity | Snow |
|---|---|---|---|---|---|---|---|
| 1777707343 | 6.67° C | 95% | 1040.5 hPa | 3.05 mm | - | 0 W/m² | - |
| 1777706738 | 7.22° C | 95% | 1040.4 hPa | 1.78 mm | - | 0 W/m² | - |
| 1777706134 | 7.22° C | 95% | 1040.5 hPa | 0 mm | - | 0 W/m² | - |
| 1777705529 | 7.22° C | 95% | 1040.4 hPa | 0 mm | - | 0 W/m² | - |
| 1777704926 | 7.22° C | 95% | 1040.6 hPa | 0 mm | - | 0 W/m² | - |
| 1777704321 | 7.22° C | 95% | 1040.5 hPa | 0 mm | - | 0 W/m² | - |
| 1777703722 | 7.22° C | 95% | 1040.6 hPa | 0 mm | - | 0 W/m² | - |
| 1777703122 | 7.22° C | 95% | 1040.7 hPa | 0 mm | - | 0 W/m² | - |
| 1777702517 | 7.22° C | 95% | 1040.7 hPa | 0 mm | - | 0 W/m² | - |
| 1777701915 | 7.22° C | 95% | 1041 hPa | 0 mm | - | 0 W/m² | - |
| 1777701316 | 7.22° C | 95% | 1040.8 hPa | 0 mm | - | 0 W/m² | - |
| 1777700713 | 7.22° C | 95% | 1041.3 hPa | 0 mm | - | 0 W/m² | - |
| 1777700112 | 7.22° C | 95% | 1041.3 hPa | 0 mm | - | 0 W/m² | - |
| 1777699508 | 7.22° C | 95% | 1041.2 hPa | 0 mm | - | 0 W/m² | - |
| 1777698904 | 7.22° C | 95% | 1041 hPa | 0 mm | - | 0 W/m² | - |
| 1777698303 | 7.22° C | 95% | 1041.3 hPa | 0 mm | - | 0 W/m² | - |
| 1777697703 | 7.22° C | 95% | 1041.5 hPa | 1.27 mm | - | 0 W/m² | - |
| 1777697102 | 7.22° C | 95% | 1041.2 hPa | 0 mm | - | 0 W/m² | - |
| 1777696497 | 7.22° C | 95% | 1041.1 hPa | 1.78 mm | - | 0 W/m² | - |
| 1777695893 | 7.22° C | 95% | 1041.3 hPa | 0 mm | - | 0 W/m² | - |
| 1777695288 | 7.22° C | 95% | 1041.2 hPa | 0 mm | - | 0 W/m² | - |
| 1777694687 | 7.22° C | 95% | 1041.6 hPa | 1.27 mm | - | 0 W/m² | - |
| 1777694086 | 7.22° C | 95% | 1041.3 hPa | 1.78 mm | - | 0 W/m² | - |
| 1777693482 | 7.78° C | 95% | 1041.1 hPa | 0 mm | - | 0 W/m² | - |
| 1777692883 | 7.78° C | 95% | 1041.4 hPa | 3.05 mm | - | 0 W/m² | - |
* Rain latest hour (hover to see other rain measurements)
** Current wind speed in m/s (hover to see current wind gust speed)